When you browse on this site, cookies collect data to enhance your experience and personalize the content and advertising you see.
Visit our Privacy Policy to learn more. By continuing to use the site, you agree to this use of cookies and data.
  • Em Portugal
  • Lista de países
  • Para 7 dias
  • Temperatura da água
  • Mapas de satélite
  • Mapa do tempo
  • Widgets de tempo
  • user-avatar
    Iniciar Sessão

    Previsão horária em Zvonec

    Hoje, 20 Junho, Quinta-feira

    Tempo Temperatura Precipitação Vento Pressão Humidade
    00:00 +18°C° 0 mm 2 m/s 749 mmHg 81%
    01:00 +18°C° 0 mm 2 m/s 749 mmHg 83%
    02:00 +17°C° 0 mm 2 m/s 749 mmHg 81%
    03:00 +18°C° 0 mm 2 m/s 749 mmHg 82%
    04:00 +18°C° 0 mm 2 m/s 749 mmHg 83%
    05:00 +18°C° 0 mm 2 m/s 749 mmHg 84%
    06:00 +19°C° 0 mm 2 m/s 749 mmHg 81%
    07:00 +21°C° 0 mm 2 m/s 749 mmHg 77%
    08:00 +23°C° 0 mm 2 m/s 749 mmHg 74%
    09:00 +24°C° 0.1 mm 2 m/s 749 mmHg 71%
    10:00 +26°C° 0.1 mm 2 m/s 749 mmHg 67%
    11:00 +27°C° 0.1 mm 3 m/s 749 mmHg 64%
    12:00 +27°C° 0.6 mm 3 m/s 748 mmHg 64%
    13:00 +27°C° 0.6 mm 4 m/s 748 mmHg 64%
    14:00 +28°C° 0.6 mm 4 m/s 748 mmHg 63%
    15:00 +27°C° 0.4 mm 4 m/s 748 mmHg 68%
    16:00 +27°C° 0.4 mm 3 m/s 748 mmHg 72%
    17:00 +26°C° 0.4 mm 3 m/s 747 mmHg 76%
    18:00 +25°C° 0.1 mm 3 m/s 747 mmHg 79%
    19:00 +24°C° 0.1 mm 3 m/s 747 mmHg 83%
    20:00 +22°C° 0.1 mm 3 m/s 747 mmHg 87%
    21:00 +21°C° 0.1 mm 3 m/s 747 mmHg 88%
    22:00 +21°C° 0.1 mm 3 m/s 747 mmHg 90%
    23:00 +20°C° 0.1 mm 3 m/s 747 mmHg 92%

    Amanhã, 21 Junho, Sexta-feira

    Tempo Temperatura Precipitação Vento Pressão Humidade
    00:00 +20°C° 0.2 mm 3 m/s 748 mmHg 93%
    01:00 +20°C° 0.2 mm 3 m/s 748 mmHg 94%
    02:00 +19°C° 0.2 mm 3 m/s 748 mmHg 95%
    03:00 +19°C° 0 mm 3 m/s 748 mmHg 95%
    04:00 +20°C° 0 mm 3 m/s 748 mmHg 95%
    05:00 +20°C° 0 mm 3 m/s 748 mmHg 94%
    06:00 +21°C° 0 mm 4 m/s 748 mmHg 90%
    07:00 +22°C° 0 mm 4 m/s 748 mmHg 86%
    08:00 +25°C° 0 mm 4 m/s 748 mmHg 81%
    09:00 +26°C° 0.7 mm 5 m/s 748 mmHg 77%
    10:00 +27°C° 0.7 mm 5 m/s 748 mmHg 73%
    11:00 +28°C° 0.7 mm 5 m/s 748 mmHg 68%
    12:00 +29°C° 0.4 mm 5 m/s 748 mmHg 67%
    13:00 +29°C° 0.4 mm 5 m/s 748 mmHg 65%
    14:00 +29°C° 0.4 mm 6 m/s 748 mmHg 63%
    15:00 +29°C° 0.3 mm 5 m/s 748 mmHg 65%
    16:00 +29°C° 0.3 mm 4 m/s 748 mmHg 68%
    17:00 +29°C° 0.3 mm 4 m/s 747 mmHg 70%
    18:00 +27°C° 0.2 mm 3 m/s 747 mmHg 75%
    19:00 +26°C° 0.2 mm 3 m/s 747 mmHg 80%
    20:00 +24°C° 0.2 mm 3 m/s 747 mmHg 85%
    21:00 +22°C° 0 mm 3 m/s 747 mmHg 86%
    22:00 +22°C° 0 mm 3 m/s 748 mmHg 87%
    23:00 +21°C° 0 mm 3 m/s 748 mmHg 89%

    Depois de amanhã, 22 Junho, Sábado

    Tempo Temperatura Precipitação Vento Pressão Humidade
    00:00 +21°C° 0 mm 3 m/s 748 mmHg 90%
    01:00 +20°C° 0 mm 3 m/s 748 mmHg 91%
    02:00 +20°C° 0 mm 3 m/s 748 mmHg 92%
    03:00 +20°C° 0 mm 3 m/s 748 mmHg 91%
    04:00 +20°C° 0 mm 3 m/s 748 mmHg 90%
    05:00 +20°C° 0 mm 3 m/s 748 mmHg 90%
    06:00 +21°C° 0.2 mm 3 m/s 748 mmHg 86%
    07:00 +24°C° 0.2 mm 3 m/s 748 mmHg 82%
    08:00 +25°C° 0.2 mm 4 m/s 749 mmHg 79%
    09:00 +26°C° 2 mm 4 m/s 749 mmHg 77%
    10:00 +27°C° 2 mm 4 m/s 749 mmHg 75%
    11:00 +28°C° 2 mm 4 m/s 749 mmHg 73%
    12:00 +28°C° 2 mm 4 m/s 749 mmHg 72%
    13:00 +28°C° 2 mm 4 m/s 749 mmHg 71%
    14:00 +28°C° 2 mm 4 m/s 748 mmHg 71%
    15:00 +28°C° 2.2 mm 3 m/s 748 mmHg 72%
    16:00 +28°C° 2.2 mm 2 m/s 748 mmHg 74%
    17:00 +28°C° 2.2 mm 1 m/s 748 mmHg 76%
    18:00 +26°C° 0.4 mm 1 m/s 748 mmHg 78%
    19:00 +25°C° 0.4 mm 1 m/s 748 mmHg 81%
    20:00 +24°C° 0.4 mm 1 m/s 749 mmHg 83%
    21:00 +23°C° 0.4 mm 1 m/s 749 mmHg 86%
    22:00 +22°C° 0.4 mm 1 m/s 749 mmHg 88%
    23:00 +22°C° 0.4 mm 1 m/s 749 mmHg 91%

    23 Junho, Domingo

    Tempo Temperatura Precipitação Vento Pressão Humidade
    00:00 +21°C° 0.1 mm 1 m/s 749 mmHg 91%
    01:00 +21°C° 0.1 mm 1 m/s 749 mmHg 91%
    02:00 +21°C° 0.1 mm 1 m/s 749 mmHg 92%
    03:00 +21°C° 0.3 mm 1 m/s 749 mmHg 92%
    04:00 +21°C° 0.3 mm 1 m/s 749 mmHg 93%
    05:00 +20°C° 0.3 mm 2 m/s 749 mmHg 94%
    06:00 +21°C° 0.5 mm 2 m/s 750 mmHg 91%
    07:00 +23°C° 0.5 mm 2 m/s 750 mmHg 88%
    08:00 +25°C° 0.5 mm 2 m/s 750 mmHg 85%
    09:00 +26°C° 2 mm 2 m/s 750 mmHg 80%
    10:00 +27°C° 2 mm 2 m/s 750 mmHg 74%
    11:00 +28°C° 2 mm 2 m/s 750 mmHg 69%
    12:00 +28°C° 1.2 mm 2 m/s 750 mmHg 69%
    13:00 +28°C° 1.2 mm 2 m/s 750 mmHg 70%
    14:00 +28°C° 1.2 mm 2 m/s 750 mmHg 70%
    15:00 +26°C° 0.7 mm 3 m/s 750 mmHg 76%
    16:00 +25°C° 0.7 mm 4 m/s 750 mmHg 82%
    17:00 +23°C° 0.7 mm 4 m/s 750 mmHg 88%
    18:00 +22°C° 0.6 mm 4 m/s 750 mmHg 90%
    19:00 +22°C° 0.6 mm 3 m/s 751 mmHg 91%
    20:00 +21°C° 0.6 mm 3 m/s 751 mmHg 92%
    21:00 +21°C° 0.1 mm 3 m/s 751 mmHg 94%
    22:00 +20°C° 0.1 mm 3 m/s 751 mmHg 95%
    23:00 +20°C° 0.1 mm 3 m/s 751 mmHg 96%

    24 Junho, Segunda-feira

    Tempo Temperatura Precipitação Vento Pressão Humidade
    00:00 +19°C° 0.4 mm 3 m/s 752 mmHg 96%
    01:00 +19°C° 0.4 mm 3 m/s 752 mmHg 97%
    02:00 +18°C° 0.4 mm 3 m/s 752 mmHg 97%
    03:00 +18°C° 0.4 mm 3 m/s 752 mmHg 97%
    04:00 +18°C° 0.4 mm 3 m/s 752 mmHg 97%
    05:00 +18°C° 0.4 mm 3 m/s 752 mmHg 97%
    06:00 +19°C° 0.9 mm 3 m/s 752 mmHg 96%
    07:00 +19°C° 0.9 mm 3 m/s 752 mmHg 95%
    08:00 +20°C° 0.9 mm 3 m/s 752 mmHg 94%
    09:00 +20°C° 0.9 mm 3 m/s 753 mmHg 93%
    10:00 +21°C° 0.9 mm 3 m/s 753 mmHg 92%
    11:00 +21°C° 0.9 mm 4 m/s 753 mmHg 91%
    12:00 +22°C° 0.1 mm 4 m/s 753 mmHg 88%
    13:00 +22°C° 0.1 mm 5 m/s 753 mmHg 86%
    14:00 +23°C° 0.1 mm 5 m/s 753 mmHg 84%
    15:00 +23°C° 0.2 mm 5 m/s 753 mmHg 84%
    16:00 +23°C° 0.2 mm 5 m/s 753 mmHg 83%
    17:00 +23°C° 0.2 mm 5 m/s 753 mmHg 83%
    18:00 +22°C° 0.1 mm 4 m/s 753 mmHg 85%
    19:00 +21°C° 0.1 mm 4 m/s 753 mmHg 87%
    20:00 +20°C° 0.1 mm 4 m/s 753 mmHg 89%
    21:00 +19°C° 0 mm 4 m/s 753 mmHg 88%
    22:00 +18°C° 0 mm 4 m/s 753 mmHg 87%
    23:00 +17°C° 0 mm 4 m/s 754 mmHg 86%

    25 Junho, Terça-feira

    Tempo Temperatura Precipitação Vento Pressão Humidade
    00:00 +17°C° 0 mm 3 m/s 754 mmHg 85%
    01:00 +16°C° 0 mm 3 m/s 754 mmHg 84%
    02:00 +16°C° 0 mm 3 m/s 754 mmHg 83%
    03:00 +16°C° 0 mm 3 m/s 754 mmHg 84%
    04:00 +16°C° 0 mm 3 m/s 754 mmHg 84%
    05:00 +16°C° 0 mm 2 m/s 753 mmHg 85%
    06:00 +17°C° 0 mm 3 m/s 754 mmHg 83%
    07:00 +18°C° 0 mm 3 m/s 754 mmHg 80%
    08:00 +20°C° 0 mm 3 m/s 754 mmHg 77%
    09:00 +21°C° 0 mm 3 m/s 754 mmHg 76%
    10:00 +21°C° 0 mm 3 m/s 754 mmHg 74%
    11:00 +22°C° 0 mm 3 m/s 754 mmHg 73%
    12:00 +24°C° 0 mm 3 m/s 754 mmHg 71%
    13:00 +25°C° 0 mm 4 m/s 753 mmHg 69%
    14:00 +25°C° 0 mm 4 m/s 753 mmHg 67%
    15:00 +25°C° 0 mm 4 m/s 753 mmHg 68%
    16:00 +25°C° 0 mm 4 m/s 753 mmHg 69%
    17:00 +23°C° 0 mm 4 m/s 753 mmHg 70%
    18:00 +22°C° 0 mm 4 m/s 753 mmHg 74%
    19:00 +21°C° 0 mm 3 m/s 753 mmHg 78%
    20:00 +19°C° 0 mm 2 m/s 753 mmHg 83%
    21:00 +18°C° 0 mm 3 m/s 753 mmHg 83%
    22:00 +17°C° 0 mm 3 m/s 753 mmHg 83%
    23:00 +16°C° 0 mm 3 m/s 753 mmHg 84%
    Mostrar mais